Weather History for Mount Holly, NJ

Change the Weather History Date:

Sunday, December 9, 2012

  Actual Average (KWRI) Record (KWRI)
Temperature  
Mean Temperature 45 °F -  
Max Temperature 48 °F 46 °F 59 °F (1999)
Min Temperature 42 °F 29 °F 14 °F (2002)
Degree Days  
Heating Degree Days 20    
Moisture  
Dew Point 44 °F    
Average Humidity 94    
Maximum Humidity 100    
Minimum Humidity 76    
Precipitation  
Precipitation 0.35 in - - ()
Sea Level Pressure  
Sea Level Pressure 30.12 in    
Wind  
Wind Speed 3 mph (NNE)    
Max Wind Speed 10 mph    
Max Gust Speed 21 mph    
Visibility 3 miles    
Events Fog , Rain    
Averages and records for this station are not official NWS values.
T = Trace of Precipitation, MM = Missing Value Source: NWS Daily Summary

Daily Weather History Graph

Daily Weather History Graph

Search for Another Location

Airport:

Trip Planner

Search our weather history database for the weather conditions in past years. The results will help you decide how hot, cold, wet, or windy it might be!

Date:

Astronomy

Dec. 09, 2012 Rise Set
Actual Time 7:09 AM EST 4:34 PM EST
Civil Twilight 6:39 AM EST 5:04 PM EST
Nautical Twilight 6:05 AM EST 5:38 PM EST
Astronomical Twilight 5:32 AM EST 6:11 PM EST
Moon 2:39 AM EST (12/9) 1:39 PM EST (12/9)
Length of Visible Light 10h 25m
Length of Day
9h 24m
Waning Crescent, 19% of the Moon is Illuminated
Dec 9
Waning Crescent
Dec 13
New
Dec 20
First Quarter
Dec 28
Full
Jan 4
Last Quarter

Hourly Weather History & Observations

Time (EST) Temp. Windchill Dew Point Humidity Pressure Visibility Wind Dir Wind Speed Gust Speed Precip Events Conditions
12:54 AM 48.9 °F - 48.0 °F 97% 30.04 in 2.5 mi SW 3.5 mph - N/A   Overcast
1:06 AM 48.2 °F - 48.2 °F 100% 30.04 in 3.0 mi West 3.5 mph - N/A   Overcast
1:31 AM 48.2 °F - 46.4 °F 93% 30.04 in 2.5 mi Calm Calm - N/A   Overcast
1:40 AM 46.4 °F - 46.4 °F 100% 30.04 in 1.5 mi Calm Calm - N/A   Overcast
1:54 AM 46.9 °F - 46.9 °F 100% 30.05 in 1.0 mi Calm Calm - N/A   Overcast
2:05 AM 46.4 °F - 46.4 °F 100% 30.05 in 0.8 mi Calm Calm - N/A   Overcast
2:16 AM 48.2 °F - 46.4 °F 93% 30.05 in 1.2 mi Calm Calm - N/A   Overcast
2:40 AM 46.4 °F - 46.4 °F 100% 30.07 in 0.8 mi Calm Calm - N/A   Overcast
2:49 AM 46.4 °F - 44.6 °F 93% 30.06 in 0.2 mi Calm Calm - N/A Fog Fog
2:54 AM 46.9 °F - 46.0 °F 97% 30.06 in 0.5 mi Calm Calm - N/A Fog Fog
3:33 AM 46.4 °F - 46.4 °F 100% 30.07 in 0.5 mi Calm Calm - N/A Fog Fog
3:44 AM 46.4 °F - 46.4 °F 100% 30.07 in 0.5 mi Calm Calm - N/A Fog Fog
3:54 AM 46.0 °F - 46.0 °F 100% 30.07 in 0.2 mi Calm Calm - N/A Fog Fog
4:10 AM 46.4 °F - 46.4 °F 100% 30.08 in 0.2 mi Calm Calm - N/A Fog Fog
4:54 AM 46.0 °F - 46.0 °F 100% 30.09 in 0.2 mi Calm Calm - N/A Fog Fog
5:22 AM 46.4 °F - 46.4 °F 100% 30.11 in 0.5 mi Calm Calm - N/A Fog Fog
5:36 AM 46.4 °F - 46.4 °F 100% 30.12 in 1.2 mi Calm Calm - N/A   Overcast
5:51 AM 46.4 °F 45.2 °F 46.4 °F 100% 30.13 in 0.8 mi North 3.5 mph - N/A   Overcast
5:52 AM 46.9 °F - 46.0 °F 97% 30.14 in 0.8 mi North 3.5 mph - N/A   Overcast
6:43 AM 48.2 °F - 46.4 °F 93% 30.16 in 1.2 mi North 4.6 mph - 0.00 in   Overcast
6:54 AM 48.0 °F - 46.9 °F 96% 30.17 in 2.0 mi Calm Calm - 0.00 in   Overcast
7:14 AM 48.2 °F - 46.4 °F 93% 30.18 in 2.5 mi NNW 3.5 mph - N/A   Overcast
7:30 AM 46.4 °F 42.9 °F 44.6 °F 93% 30.18 in 3.0 mi NNE 6.9 mph - 0.01 in Rain Light Rain
7:54 AM 46.9 °F - 43.0 °F 86% 30.18 in 6.0 mi NNE 5.8 mph - 0.02 in Rain Light Rain
8:54 AM 46.0 °F 42.5 °F 43.0 °F 89% 30.22 in 4.0 mi NNW 6.9 mph - 0.02 in Rain Rain
9:54 AM 46.0 °F 43.1 °F 43.0 °F 89% 30.22 in 5.0 mi NNE 5.8 mph - 0.09 in Rain Light Rain
10:54 AM 46.0 °F 43.9 °F 44.1 °F 93% 30.22 in 3.0 mi NNE 4.6 mph - 0.07 in Rain Rain
11:32 AM 46.4 °F 43.5 °F 44.6 °F 93% 30.20 in 4.0 mi NNE 5.8 mph - 0.02 in Rain Light Rain
11:51 AM 46.4 °F 44.3 °F 44.6 °F 93% 30.20 in 4.0 mi NNE 4.6 mph - 0.02 in Rain Light Rain
11:52 AM 46.9 °F - 45.0 °F 93% 30.19 in 4.0 mi NNE 4.6 mph - 0.02 in Rain Light Rain
12:26 PM 46.4 °F 44.3 °F 44.6 °F 93% 30.19 in 4.0 mi NE 4.6 mph - 0.01 in   Overcast
12:54 PM 46.9 °F - 44.1 °F 90% 30.17 in 6.0 mi ENE 6.9 mph - 0.01 in Rain Light Rain
1:27 PM 46.4 °F 42.9 °F 44.6 °F 93% 30.17 in 7.0 mi NE 6.9 mph - 0.00 in   Overcast
1:54 PM 46.0 °F 42.5 °F 43.0 °F 89% 30.17 in 7.0 mi ENE 6.9 mph - 0.00 in   Overcast
2:06 PM 44.6 °F 39.2 °F 37.4 °F 76% 30.16 in 10.0 mi ENE 10.4 mph 20.7 mph 0.00 in Rain Light Rain
2:44 PM 42.8 °F 38.6 °F 37.4 °F 81% 30.17 in 10.0 mi East 6.9 mph - 0.00 in   Overcast
2:54 PM 43.0 °F 38.8 °F 37.9 °F 82% 30.17 in 10.0 mi ENE 6.9 mph - 0.00 in   Overcast
3:54 PM 44.1 °F - 39.0 °F 82% 30.18 in 10.0 mi Calm Calm - N/A   Overcast
4:27 PM 42.8 °F 38.0 °F 39.2 °F 87% 30.17 in 10.0 mi NNE 8.1 mph - N/A   Overcast
4:54 PM 43.0 °F 38.8 °F 39.9 °F 89% 30.17 in 10.0 mi NNE 6.9 mph - N/A   Overcast
5:09 PM 42.8 °F 40.1 °F 39.2 °F 87% 30.17 in 8.0 mi ENE 4.6 mph - N/A   Overcast
5:38 PM 42.8 °F 40.1 °F 41.0 °F 93% 30.17 in 2.5 mi NE 4.6 mph - N/A   Overcast
5:54 PM 42.1 °F 39.2 °F 41.0 °F 96% 30.16 in 2.0 mi NE 4.6 mph - N/A   Overcast
6:08 PM 42.8 °F 41.1 °F 41.0 °F 93% 30.15 in 2.0 mi NE 3.5 mph - N/A   Overcast
6:15 PM 42.8 °F 41.1 °F 41.0 °F 93% 30.15 in 1.8 mi NE 3.5 mph - N/A   Overcast
6:31 PM 42.8 °F 41.1 °F 42.8 °F 100% 30.15 in 2.0 mi NE 3.5 mph - N/A   Overcast
6:54 PM 43.0 °F 40.3 °F 42.1 °F 97% 30.14 in 2.0 mi NNE 4.6 mph - 0.01 in Rain Light Rain
7:37 PM 42.8 °F 40.1 °F 42.8 °F 100% 30.13 in 3.0 mi North 4.6 mph - 0.01 in Rain Light Rain
7:54 PM 43.0 °F 40.3 °F 42.1 °F 97% 30.12 in 4.0 mi NE 4.6 mph - 0.02 in   Overcast
8:16 PM 44.6 °F 41.4 °F 42.8 °F 93% 30.10 in 2.5 mi ENE 5.8 mph - N/A   Overcast
8:40 PM 44.6 °F 43.1 °F 42.8 °F 93% 30.08 in 3.0 mi ENE 3.5 mph - 0.00 in   Overcast
8:47 PM 44.6 °F 42.2 °F 42.8 °F 93% 30.07 in 2.5 mi ENE 4.6 mph - 0.00 in   Overcast
8:54 PM 44.1 °F 41.5 °F 43.0 °F 96% 30.07 in 2.5 mi ENE 4.6 mph - 0.00 in   Overcast
9:08 PM 44.6 °F - 42.8 °F 93% 30.06 in 3.0 mi Calm Calm - N/A   Overcast
9:40 PM 44.6 °F 43.1 °F 44.6 °F 100% 30.06 in 2.0 mi West 3.5 mph - 0.01 in Rain Light Rain
9:54 PM 45.0 °F - 44.1 °F 97% 30.05 in 2.0 mi Calm Calm - 0.04 in Rain Rain
10:16 PM 44.6 °F - 44.6 °F 100% 30.04 in 3.0 mi Calm Calm - 0.03 in Rain Light Rain
10:54 PM 45.0 °F 43.5 °F 44.1 °F 97% 30.03 in 4.0 mi NNW 3.5 mph - 0.04 in Rain Light Rain
11:20 PM 44.6 °F 43.1 °F 44.6 °F 100% 30.02 in 2.5 mi NW 3.5 mph - 0.01 in Rain Light Rain
11:30 PM 44.6 °F - 44.6 °F 100% 30.01 in 4.0 mi Calm Calm - 0.01 in Rain Light Rain
11:54 PM 45.0 °F - 44.1 °F 97% 30.00 in 3.0 mi Calm Calm - 0.01 in   Overcast